QPF
0.01 0.01 0.01 0.01 0.01 0.01 0.02 0.02 0.03 0.02 0.01 0.01 0.01 0.01 0.01 0.01 0.02 0.02 0.01 0.02 0.02 0.02 0.01 0.01 0.01 0.00 0.00 0.00 0.00 0.00 0.01 0.01 0.01 0.02 0.02 0.02 0.02 0.02
0.00 0.01 0.01 0.01 0.01 0.01 0.01 0.01 0.01 0.02 0.02 0.01 0.01 0.01 0.01 0.01 0.02 0.01 0.02 0.02 0.02 0.02 0.01 0.01 0.01 0.00 0.00 0.00 0.00 0.00 0.00 0.01 0.01 0.01 0.02 0.02 0.02 0.02
0.00 0.00 0.00 0.01 0.01 0.01 0.01 0.01 0.01 0.01 0.01 0.01 0.01 0.01 0.01 0.01 0.01 0.01 0.01 0.01 0.01 0.01 0.01 0.01 0.00 0.00 0.00 0.00 0.01 0.01 0.01 0.01 0.01 0.01 0.01 0.01 0.02 0.02
0.00 0.00 0.00 0.00 0.01 0.02 0.02 0.02 0.02 0.02 0.01 0.01 0.01 0.01 0.01 0.01 0.01 0.01 0.01 0.01 0.01 0.01 0.01 0.01 0.00 0.00 0.00 0.00 0.00 0.01 0.01 0.01 0.01 0.01 0.01 0.01 0.01 0.01
0.01 0.00 0.00 0.00 0.00 0.01 0.02 0.02 0.02 0.02 0.02 0.02 0.02 0.01 0.01 0.01 0.01 0.01 0.01 0.01 0.01 0.01 0.01 0.00 0.00 0.00 0.00 0.00 0.00 0.00 0.00 0.00 0.01 0.01 0.01 0.01 0.01 0.01
0.01 0.01 0.00 0.00 0.00 0.00 0.01 0.01 0.02 0.02 0.02 0.02 0.02 0.01 0.01 0.01 0.01 0.01 0.01 0.01 0.01 0.01 0.01 0.00 0.00 0.00 0.00 0.00 0.00 0.00 0.00 0.00 0.00 0.00 0.00 0.01 0.01 0.01
0.02 0.01 0.01 0.00 0.00 0.01 0.00 0.00 0.00 0.01 0.01 0.01 0.01 0.01 0.01 0.01 0.01 0.01 0.01 0.01 0.01 0.01 0.00 0.00 0.00 0.00 0.00 0.00 0.00 0.00 0.00 0.00 0.00 0.00 0.00 0.00 0.00 0.00
0.01 0.01 0.01 0.01 0.00 0.00 0.01 0.01 0.01 0.00 0.01 0.01 0.01 0.01 0.01 0.01 0.01 0.01 0.01 0.01 0.01 0.01 0.00 0.00 0.00 0.00 0.00 0.00 0.00 0.00 0.00 0.00 0.00 0.00 0.00 0.00 0.00 0.00
0.00 0.01 0.01 0.01 0.01 0.00 0.00 0.00 0.01 0.01 0.01 0.01 0.00 0.00 0.01 0.00 0.01 0.01 0.01 0.01 0.01 0.01 0.00 0.00 0.00 0.00 0.00 0.00 0.00 0.00 0.00 0.00 0.00 0.00 0.00 0.00 0.00 0.00
0.00 0.00 0.00 0.00 0.01 0.01 0.00 0.00 0.00 0.00 0.00 0.01 0.00 0.00 0.01 0.01 0.01 0.01 0.01 0.01 0.00 0.00 0.00 0.00 0.00 0.00 0.00 0.00 0.00 0.00 0.00 0.00 0.00 0.00 0.00 0.00 0.00 0.00
0.00 0.00 0.00 0.00 0.00 0.00 0.00 0.00 0.00 0.00 0.00 0.00 0.00 0.00 0.00 0.00 0.01 0.01 0.01 0.01 0.01 0.00 0.00 0.00 0.00 0.00 0.00 0.00 0.00 0.00 0.00 0.00 0.00 0.00 0.00 0.00 0.00 0.00
0.00 0.00 0.00 0.00 0.00 0.00 0.00 0.00 0.00 0.00 0.00 0.00 0.00 0.00 0.00 0.00 0.00 0.00 0.01 0.01 0.01 0.01 0.00 0.00 0.00 0.00 0.00 0.00 0.00 0.00 0.00 0.00 0.00 0.00 0.00 0.00 0.00 0.00
0.00 0.00 0.00 0.00 0.01 0.01 0.01 0.00 0.00 0.00 0.00 0.00 0.00 0.00 0.00 0.00 0.00 0.00 0.00 0.01 0.01 0.01 0.00 0.01 0.01 0.01 0.01 0.01 0.00 0.00 0.00 0.00 0.00 0.00 0.00 0.00 0.00 0.00
0.00 0.00 0.00 0.00 0.01 0.01 0.01 0.01 0.01 0.01 0.00 0.00 0.00 0.00 0.00 0.00 0.00 0.00 0.00 0.00 0.00 0.01 0.00 0.01 0.01 0.01 0.01 0.01 0.00 0.00 0.00 0.00 0.00 0.00 0.00 0.00 0.00 0.00
0.00 0.00 0.00 0.00 0.01 0.01 0.01 0.01 0.01 0.01 0.01 0.00 0.00 0.00 0.00 0.00 0.00 0.00 0.00 0.00 0.00 0.00 0.00 0.00 0.01 0.01 0.02 0.02 0.01 0.00 0.00 0.00 0.00 0.00 0.00 0.00 0.00 0.01
0.00 0.00 0.00 0.00 0.00 0.01 0.01 0.01 0.01 0.01 0.01 0.01 0.00 0.00 0.01 0.01 0.01 0.01 0.01 0.01 0.01 0.01 0.00 0.00 0.01 0.01 0.02 0.02 0.01 0.01 0.00 0.00 0.00 0.00 0.00 0.00 0.00 0.00
0.00 0.00 0.00 0.00 0.00 0.01 0.01 0.01 0.01 0.01 0.01 0.01 0.01 0.02 0.02 0.01 0.01 0.01 0.02 0.02 0.02 0.01 0.01 0.01 0.01 0.01 0.02 0.02 0.02 0.01 0.01 0.00 0.00 0.00 0.00 0.00 0.00 0.00
0.01 0.01 0.01 0.01 0.01 0.01 0.01 0.01 0.01 0.01 0.01 0.01 0.02 0.02 0.02 0.02 0.02 0.02 0.02 0.03 0.03 0.02 0.01 0.01 0.02 0.03 0.03 0.02 0.01 0.01 0.01 0.01 0.00 0.00 0.00 0.01 0.00 0.00
0.01 0.01 0.01 0.01 0.01 0.01 0.01 0.01 0.01 0.01 0.01 0.02 0.02 0.02 0.02 0.02 0.02 0.03 0.03 0.03 0.02 0.02 0.02 0.02 0.02 0.03 0.03 0.01 0.00 0.01 0.01 0.00 0.00 0.00 0.00 0.01 0.01 0.00
0.00 0.00 0.00 0.00 0.01 0.01 0.01 0.01 0.01 0.01 0.01 0.02 0.02 0.02 0.02 0.03 0.03 0.03 0.03 0.03 0.03 0.03 0.02 0.02 0.02 0.02 0.03 0.02 0.02 0.01 0.01 0.00 0.01 0.01 0.00 0.00 0.00 0.00
0.00 0.00 0.00 0.01 0.01 0.01 0.01 0.01 0.01 0.01 0.01 0.02 0.02 0.02 0.03 0.03 0.03 0.03 0.03 0.03 0.03 0.03 0.02 0.01 0.01 0.01 0.02 0.03 0.02 0.01 0.00 0.00 0.00 0.01 0.01 0.01 0.01 0.00
0.00 0.01 0.01 0.01 0.01 0.01 0.01 0.01 0.01 0.02 0.02 0.02 0.02 0.03 0.03 0.04 0.04 0.03 0.03 0.03 0.03 0.02 0.02 0.01 0.01 0.02 0.03 0.03 0.01 0.01 0.00 0.00 0.00 0.00 0.00 0.01 0.02 0.01
0.00 0.01 0.01 0.01 0.00 0.01 0.01 0.01 0.02 0.02 0.02 0.02 0.03 0.03 0.03 0.04 0.04 0.04 0.03 0.03 0.03 0.02 0.02 0.02 0.02 0.02 0.02 0.02 0.01 0.01 0.00 0.00 0.00 0.00 0.00 0.00 0.00 0.00
MSLP
1022.23 1022.38 1022.52 1022.65 1022.74 1022.76 1022.71 1022.57 1022.34 1022.05 1021.72 1021.38 1021.07 1020.81 1020.63 1020.53 1020.51 1020.56 1020.64 1020.74 1020.82 1020.88 1020.88 1020.83 1020.73 1020.59 1020.41 1020.20 1019.99 1019.77 1019.56 1019.35 1019.15 1018.95 1018.75 1018.55 1018.34 1018.11
1021.96 1022.08 1022.21 1022.32 1022.41 1022.44 1022.40 1022.28 1022.09 1021.82 1021.51 1021.18 1020.86 1020.58 1020.37 1020.22 1020.14 1020.13 1020.17 1020.23 1020.30 1020.35 1020.36 1020.33 1020.25 1020.13 1019.96 1019.77 1019.56 1019.35 1019.14 1018.93 1018.74 1018.55 1018.36 1018.18 1017.99 1017.78
1021.51 1021.61 1021.71 1021.80 1021.88 1021.92 1021.91 1021.84 1021.70 1021.49 1021.23 1020.95 1020.65 1020.38 1020.14 1019.95 1019.82 1019.75 1019.72 1019.73 1019.75 1019.76 1019.76 1019.72 1019.64 1019.52 1019.37 1019.19 1018.99 1018.79 1018.59 1018.40 1018.23 1018.06 1017.91 1017.75 1017.59 1017.42
1020.96 1021.02 1021.09 1021.16 1021.23 1021.28 1021.30 1021.27 1021.19 1021.06 1020.87 1020.65 1020.40 1020.15 1019.91 1019.70 1019.52 1019.39 1019.30 1019.24 1019.20 1019.16 1019.12 1019.06 1018.97 1018.84 1018.69 1018.52 1018.34 1018.15 1017.96 1017.80 1017.65 1017.51 1017.39 1017.27 1017.14 1017.01
1020.40 1020.42 1020.45 1020.49 1020.53 1020.58 1020.62 1020.63 1020.60 1020.53 1020.42 1020.26 1020.07 1019.86 1019.63 1019.41 1019.21 1019.03 1018.89 1018.77 1018.67 1018.58 1018.50 1018.41 1018.30 1018.16 1018.01 1017.84 1017.66 1017.48 1017.31 1017.16 1017.03 1016.92 1016.83 1016.74 1016.65 1016.54
1019.89 1019.87 1019.86 1019.85 1019.87 1019.90 1019.93 1019.95 1019.96 1019.94 1019.88 1019.79 1019.65 1019.47 1019.28 1019.07 1018.86 1018.66 1018.48 1018.32 1018.18 1018.05 1017.94 1017.81 1017.68 1017.53 1017.37 1017.19 1017.01 1016.83 1016.67 1016.52 1016.40 1016.31 1016.23 1016.16 1016.10 1016.02
1019.50 1019.44 1019.37 1019.32 1019.29 1019.27 1019.27 1019.29 1019.30 1019.30 1019.27 1019.21 1019.12 1018.98 1018.82 1018.64 1018.44 1018.24 1018.06 1017.88 1017.73 1017.58 1017.44 1017.30 1017.15 1016.99 1016.81 1016.62 1016.43 1016.23 1016.06 1015.90 1015.77 1015.67 1015.60 1015.54 1015.48 1015.42
1019.22 1019.12 1019.00 1018.89 1018.80 1018.73 1018.68 1018.65 1018.63 1018.62 1018.60 1018.56 1018.49 1018.40 1018.27 1018.12 1017.96 1017.78 1017.62 1017.45 1017.30 1017.16 1017.02 1016.87 1016.71 1016.53 1016.33 1016.12 1015.90 1015.68 1015.47 1015.29 1015.14 1015.02 1014.93 1014.86 1014.80 1014.74
1019.02 1018.88 1018.72 1018.55 1018.39 1018.25 1018.14 1018.05 1017.99 1017.94 1017.91 1017.86 1017.81 1017.74 1017.65 1017.54 1017.42 1017.29 1017.15 1017.02 1016.90 1016.77 1016.63 1016.48 1016.31 1016.12 1015.90 1015.66 1015.40 1015.15 1014.91 1014.69 1014.51 1014.36 1014.24 1014.15 1014.08 1014.01
1018.84 1018.67 1018.47 1018.25 1018.03 1017.83 1017.64 1017.49 1017.38 1017.29 1017.22 1017.17 1017.12 1017.06 1017.00 1016.94 1016.86 1016.77 1016.68 1016.59 1016.49 1016.38 1016.25 1016.11 1015.93 1015.72 1015.47 1015.21 1014.92 1014.63 1014.35 1014.09 1013.87 1013.68 1013.54 1013.43 1013.34 1013.26
1018.62 1018.42 1018.19 1017.94 1017.67 1017.41 1017.17 1016.97 1016.80 1016.67 1016.58 1016.51 1016.46 1016.42 1016.39 1016.35 1016.31 1016.26 1016.21 1016.15 1016.07 1015.98 1015.86 1015.71 1015.52 1015.29 1015.03 1014.73 1014.42 1014.10 1013.79 1013.50 1013.25 1013.03 1012.86 1012.73 1012.63 1012.54
1018.32 1018.11 1017.85 1017.57 1017.28 1016.99 1016.72 1016.48 1016.28 1016.13 1016.01 1015.94 1015.89 1015.86 1015.84 1015.82 1015.80 1015.78 1015.75 1015.71 1015.64 1015.55 1015.43 1015.27 1015.08 1014.83 1014.55 1014.24 1013.90 1013.56 1013.23 1012.93 1012.66 1012.43 1012.24 1012.10 1011.98 1011.88
1017.94 1017.71 1017.45 1017.16 1016.85 1016.55 1016.27 1016.02 1015.82 1015.65 1015.54 1015.46 1015.41 1015.39 1015.38 1015.37 1015.36 1015.35 1015.32 1015.28 1015.21 1015.11 1014.98 1014.81 1014.59 1014.34 1014.05 1013.72 1013.38 1013.04 1012.71 1012.40 1012.13 1011.90 1011.70 1011.54 1011.41 1011.30
1017.51 1017.27 1017.00 1016.71 1016.41 1016.12 1015.85 1015.61 1015.41 1015.26 1015.15 1015.08 1015.04 1015.02 1015.01 1015.00 1014.99 1014.96 1014.92 1014.86 1014.78 1014.66 1014.51 1014.32 1014.10 1013.84 1013.54 1013.22 1012.89 1012.56 1012.24 1011.94 1011.67 1011.44 1011.24 1011.07 1010.92 1010.79
1017.08 1016.83 1016.56 1016.27 1015.98 1015.70 1015.45 1015.23 1015.06 1014.92 1014.83 1014.77 1014.74 1014.72 1014.71 1014.70 1014.67 1014.63 1014.56 1014.48 1014.36 1014.22 1014.05 1013.85 1013.62 1013.36 1013.07 1012.76 1012.44 1012.12 1011.81 1011.52 1011.26 1011.03 1010.82 1010.63 1010.46 1010.30
1016.70 1016.44 1016.16 1015.88 1015.59 1015.33 1015.10 1014.90 1014.75 1014.63 1014.56 1014.51 1014.49 1014.47 1014.46 1014.43 1014.38 1014.32 1014.23 1014.12 1013.98 1013.82 1013.63 1013.42 1013.18 1012.92 1012.64 1012.34 1012.03 1011.72 1011.42 1011.13 1010.86 1010.62 1010.39 1010.17 1009.97 1009.77
1016.43 1016.14 1015.85 1015.56 1015.28 1015.02 1014.79 1014.61 1014.47 1014.37 1014.31 1014.27 1014.25 1014.24 1014.22 1014.18 1014.12 1014.03 1013.92 1013.79 1013.63 1013.45 1013.25 1013.03 1012.79 1012.53 1012.25 1011.95 1011.64 1011.33 1011.02 1010.72 1010.43 1010.14 1009.88 1009.62 1009.37 1009.12
1016.26 1015.95 1015.64 1015.33 1015.03 1014.77 1014.54 1014.35 1014.21 1014.12 1014.06 1014.03 1014.01 1013.99 1013.97 1013.92 1013.85 1013.75 1013.63 1013.48 1013.31 1013.12 1012.92 1012.69 1012.44 1012.17 1011.88 1011.57 1011.24 1010.91 1010.56 1010.22 1009.88 1009.54 1009.22 1008.90 1008.60 1008.30
1016.18 1015.85 1015.51 1015.17 1014.86 1014.57 1014.32 1014.12 1013.97 1013.87 1013.80 1013.77 1013.75 1013.73 1013.70 1013.65 1013.58 1013.48 1013.35 1013.19 1013.02 1012.82 1012.60 1012.36 1012.09 1011.80 1011.49 1011.14 1010.78 1010.39 1009.99 1009.58 1009.17 1008.77 1008.37 1007.99 1007.63 1007.28
1016.16 1015.81 1015.44 1015.07 1014.72 1014.41 1014.13 1013.91 1013.74 1013.62 1013.55 1013.50 1013.48 1013.46 1013.43 1013.38 1013.30 1013.20 1013.06 1012.90 1012.71 1012.50 1012.26 1012.00 1011.71 1011.38 1011.02 1010.63 1010.20 1009.74 1009.27 1008.78 1008.29 1007.80 1007.33 1006.89 1006.46 1006.07
1016.15 1015.78 1015.39 1014.99 1014.62 1014.27 1013.97 1013.72 1013.52 1013.39 1013.30 1013.24 1013.21 1013.18 1013.15 1013.09 1013.01 1012.90 1012.76 1012.58 1012.37 1012.14 1011.87 1011.57 1011.23 1010.86 1010.44 1009.98 1009.48 1008.95 1008.39 1007.81 1007.24 1006.68 1006.14 1005.63 1005.16 1004.74
1016.10 1015.72 1015.32 1014.91 1014.51 1014.14 1013.81 1013.54 1013.33 1013.18 1013.07 1013.00 1012.96 1012.92 1012.87 1012.80 1012.70 1012.57 1012.40 1012.20 1011.96 1011.69 1011.38 1011.03 1010.64 1010.20 1009.72 1009.18 1008.61 1008.00 1007.36 1006.72 1006.07 1005.44 1004.84 1004.29 1003.79 1003.34
1015.99 1015.61 1015.20 1014.78 1014.38 1014.00 1013.67 1013.38 1013.16 1012.99 1012.87 1012.78 1012.71 1012.65 1012.58 1012.48 1012.35 1012.18 1011.98 1011.73 1011.44 1011.11 1010.75 1010.34 1009.88 1009.38 1008.84 1008.24 1007.60 1006.93 1006.24 1005.53 1004.84 1004.16 1003.53 1002.94 1002.41 1001.95
Thickness
5543 5541 5539 5537 5535 5532 5529 5526 5521 5519 5521 5523 5520 5518 5515 5512 5510 5508 5506 5504 5503 5503 5502 5502 5501 5501 5501 5501 5502 5503 5504 5505 5507 5508 5510 5513 5515 5517
5533 5531 5529 5527 5524 5521 5518 5515 5512 5508 5507 5509 5507 5505 5502 5500 5498 5496 5494 5492 5491 5490 5489 5489 5488 5487 5488 5488 5489 5490 5491 5492 5493 5495 5497 5498 5501 5503
5523 5521 5519 5516 5513 5510 5507 5504 5501 5497 5494 5494 5493 5492 5489 5488 5486 5484 5482 5480 5479 5477 5476 5475 5475 5474 5475 5475 5475 5476 5477 5478 5479 5480 5482 5484 5486 5488
5512 5510 5508 5505 5502 5500 5496 5493 5489 5486 5483 5481 5480 5478 5476 5475 5474 5472 5470 5468 5467 5465 5464 5463 5462 5461 5462 5462 5462 5462 5463 5464 5465 5466 5468 5470 5472 5474
5502 5500 5497 5494 5491 5488 5485 5481 5478 5476 5473 5470 5468 5466 5464 5462 5461 5459 5457 5455 5454 5452 5451 5450 5449 5449 5448 5449 5449 5450 5450 5451 5452 5453 5454 5456 5458 5460
5492 5489 5486 5483 5480 5477 5474 5471 5467 5463 5460 5458 5456 5453 5450 5449 5447 5444 5443 5441 5440 5440 5439 5437 5437 5436 5436 5436 5436 5437 5437 5438 5439 5440 5441 5443 5445 5447
5480 5478 5476 5473 5470 5466 5463 5460 5456 5452 5448 5445 5443 5440 5438 5435 5433 5431 5429 5428 5427 5427 5425 5424 5423 5424 5423 5423 5423 5423 5424 5425 5426 5427 5428 5430 5431 5434
5469 5467 5464 5462 5458 5456 5453 5450 5446 5442 5437 5433 5430 5427 5426 5423 5420 5418 5414 5412 5411 5413 5410 5411 5410 5410 5411 5411 5411 5411 5412 5412 5413 5414 5415 5417 5419 5421
5457 5455 5453 5450 5447 5443 5440 5438 5435 5431 5428 5423 5419 5417 5414 5411 5408 5404 5401 5398 5397 5398 5396 5397 5398 5398 5399 5399 5398 5399 5400 5401 5401 5402 5403 5405 5406 5408
5447 5444 5441 5438 5436 5432 5428 5425 5422 5419 5416 5412 5410 5407 5403 5399 5396 5393 5389 5386 5386 5385 5383 5382 5384 5385 5387 5387 5387 5387 5388 5389 5389 5390 5391 5392 5394 5396
5436 5434 5431 5428 5425 5421 5417 5413 5410 5408 5405 5401 5398 5395 5391 5388 5384 5380 5376 5372 5372 5373 5370 5368 5370 5371 5374 5375 5375 5375 5375 5376 5377 5378 5379 5380 5382 5384
5426 5423 5421 5417 5413 5409 5405 5401 5398 5396 5392 5390 5387 5383 5380 5376 5372 5368 5364 5360 5358 5359 5359 5356 5356 5355 5358 5362 5363 5363 5363 5364 5365 5366 5367 5368 5370 5372
5414 5411 5408 5405 5402 5398 5394 5390 5387 5384 5380 5377 5375 5371 5368 5364 5361 5357 5353 5349 5347 5347 5347 5343 5342 5341 5341 5347 5350 5350 5351 5352 5353 5354 5355 5356 5358 5359
5403 5400 5397 5394 5390 5387 5383 5380 5376 5372 5368 5365 5362 5359 5356 5353 5350 5347 5343 5341 5339 5337 5335 5333 5331 5330 5330 5331 5335 5339 5339 5340 5341 5343 5344 5345 5346 5348
5393 5390 5386 5383 5379 5375 5372 5368 5364 5359 5355 5352 5350 5348 5345 5342 5339 5336 5333 5331 5330 5328 5326 5324 5322 5321 5320 5321 5324 5326 5328 5330 5331 5332 5333 5334 5335 5337
5381 5378 5375 5372 5367 5364 5360 5356 5351 5347 5343 5341 5338 5336 5333 5330 5327 5325 5323 5321 5320 5319 5317 5315 5314 5312 5312 5313 5313 5316 5317 5318 5322 5322 5323 5325 5326 5328
5369 5366 5362 5358 5354 5350 5346 5342 5338 5335 5331 5328 5325 5324 5322 5319 5318 5315 5313 5312 5310 5310 5309 5307 5305 5304 5304 5304 5306 5308 5309 5310 5311 5312 5314 5317 5319 5320
5357 5353 5350 5346 5342 5338 5334 5330 5326 5323 5319 5317 5314 5312 5310 5309 5307 5306 5304 5303 5302 5301 5300 5298 5297 5296 5296 5298 5299 5301 5302 5303 5304 5304 5305 5307 5311 5313
5345 5341 5338 5334 5330 5326 5322 5319 5316 5312 5309 5306 5304 5302 5300 5298 5297 5296 5295 5294 5293 5293 5292 5290 5288 5287 5287 5290 5294 5294 5294 5295 5296 5297 5298 5299 5302 5306
5333 5330 5326 5323 5319 5315 5312 5309 5306 5302 5299 5297 5294 5292 5290 5288 5287 5287 5286 5285 5285 5285 5284 5282 5281 5280 5280 5281 5283 5286 5287 5287 5288 5290 5292 5293 5296 5299
5323 5319 5315 5312 5309 5305 5302 5299 5296 5293 5291 5288 5286 5284 5282 5280 5280 5279 5278 5278 5278 5277 5277 5277 5276 5275 5274 5273 5275 5279 5281 5282 5282 5282 5284 5285 5287 5291
5312 5309 5306 5302 5299 5296 5293 5290 5287 5285 5282 5280 5279 5277 5275 5274 5273 5273 5272 5271 5271 5271 5270 5270 5269 5267 5266 5267 5269 5271 5274 5276 5277 5277 5278 5278 5277 5280
5302 5299 5296 5293 5290 5287 5284 5281 5279 5277 5275 5273 5272 5270 5269 5268 5268 5267 5267 5266 5265 5264 5263 5262 5261 5261 5261 5261 5262 5264 5266 5268 5270 5272 5274 5275 5275 5276